Find Starlink 34325

NORAD ID: 64262 Int'l Des: 2025-120 Owner: SPXS Country: US Constellation: starlink operational
LEOCIRCULAR

当前视图

正在加载3D地球...

About Starlink 34325

Starlink 34325 (NORAD 64262) is a starlink constellation satellite (v2 mini) launched Jun 4, 2025 by SPXS of US. It operates in LEO, CIRCULAR orbit with a mass of 575.00 kg.

即将过境

Passes for default location (London). Set your location on the main map for personalized predictions.

高度历史

Loading altitude history...

两行轨道根数

1 64262U 25120G 26263.22666425 .00013366 00000-0 40614-3 0 9999
2 64262 53.1582 290.7486 0001148 90.5430 269.5704 15.34388900 73731
Epoch: Sep 20, 2026 • Age: 18 hours

当前状态

高度 466.6 km
远地点 / 近地点 N/A
速度 7.64 km/s
星下点 44.78°N, 72.51°E
发射日期 Jun 4, 2025
运行时间 1.2 years
类型 internet

技术详情

分类 Payload
质量 575.00 kg
干质量 530.00 kg
长度 0.30 m
跨度 29.00 m
形状 ? Box + pan
制造商 SPXS
平台类型 Starlink V2MO
阶段状态 In Orbit
所有者/国家 SPXS/US

Most Searched